| time (UTC) | temp F | wind direction | speed MPH | gust MPH | rain 1hr in | rain 24hr in | rain mn in | humidity % | barometer mb |
| 20260904030042 | 61 | 272 | 2.0 | 6.0 | 0.00 | 0.08 | 0.01 | 49 | 1010.2 |
| 20260904024542 | 62 | 273 | 1.0 | 6.0 | 0.00 | 0.08 | 0.01 | 47 | 1010.2 |
| 20260904023052 | 63 | 277 | 2.0 | 4.0 | 0.00 | 0.08 | 0.01 | 45 | 1009.9 |
| 20260904021552 | 64 | 276 | 2.0 | 6.0 | 0.00 | 0.08 | 0.01 | 43 | 1009.8 |
| 20260904020047 | 65 | 275 | 1.0 | 3.0 | 0.00 | 0.08 | 0.01 | 45 | 1010.0 |
| 20260904014613 | 65 | 275 | 3.0 | 9.0 | 0.00 | 0.08 | 0.01 | 42 | 1009.8 |
| 20260904013114 | 66 | 283 | 8.0 | 13.0 | 0.00 | 0.08 | 0.01 | 41 | 1009.7 |
| 20260904011548 | 66 | 274 | 9.0 | 16.0 | 0.00 | 0.08 | 0.01 | 41 | 1009.5 |
| 20260904010043 | 65 | 264 | 8.0 | 13.0 | 0.00 | 0.08 | 0.01 | 41 | 1009.9 |
| 20260904004550 | 66 | 271 | 9.0 | 18.0 | 0.00 | 0.08 | 0.01 | 39 | 1010.1 |
| 20260904003045 | 67 | 302 | 14.0 | 23.0 | 0.00 | 0.08 | 0.01 | 38 | 1010.0 |
| 20260904001542 | 68 | 288 | 17.0 | 27.0 | 0.00 | 0.08 | 0.01 | 38 | 1009.7 |
| 20260903234549 | 69 | 266 | 14.0 | 31.0 | 0.00 | 0.28 | 0.01 | 36 | 1009.7 |
| 20260903233053 | 69 | 254 | 19.0 | 28.0 | 0.00 | 0.28 | 0.01 | 35 | 1009.6 |
| 20260903231543 | 69 | 274 | 15.0 | 25.0 | 0.00 | 0.28 | 0.01 | 37 | 1009.9 |
| 20260903224547 | 69 | 248 | 18.0 | 29.0 | 0.00 | 0.28 | 0.01 | 37 | 1009.8 |
| 20260903223050 | 69 | 248 | 18.0 | 30.0 | 0.00 | 0.28 | 0.01 | 39 | 1009.9 |
| 20260903221555 | 69 | 244 | 18.0 | 31.0 | 0.00 | 0.28 | 0.01 | 39 | 1009.3 |
| 20260903220046 | 69 | 264 | 20.0 | 31.0 | 0.00 | 0.28 | 0.01 | 38 | 1009.2 |
| 20260903214544 | 70 | 269 | 21.0 | 29.0 | 0.00 | 0.28 | 0.01 | 39 | 1009.0 |
| 20260903213044 | 70 | 276 | 17.0 | 27.0 | 0.00 | 0.28 | 0.01 | 37 | 1009.0 |
| 20260903211604 | 70 | 246 | 17.0 | 28.0 | 0.00 | 0.28 | 0.01 | 40 | 1009.0 |
| 20260903210045 | 70 | 267 | 20.0 | 32.0 | 0.00 | 0.28 | 0.01 | 39 | 1008.9 |
| 20260903204543 | 70 | 232 | 20.0 | 30.0 | 0.00 | 0.28 | 0.01 | 40 | 1008.9 |
| 20260903203043 | 70 | 245 | 21.0 | 31.0 | 0.00 | 0.28 | 0.01 | 39 | 1008.7 |
| 20260903201557 | 70 | 257 | 21.0 | 32.0 | 0.00 | 0.28 | 0.01 | 40 | 1008.5 |
| 20260903200050 | 69 | 242 | 20.0 | 27.0 | 0.00 | 0.28 | 0.01 | 43 | 1008.3 |
| 20260903194548 | 69 | 248 | 20.0 | 32.0 | 0.00 | 0.28 | 0.01 | 42 | 1008.3 |
| 20260903193046 | 69 | 248 | 22.0 | 33.0 | 0.00 | 0.28 | 0.01 | 42 | 1008.6 |
| 20260903191551 | 68 | 244 | 23.0 | 34.0 | 0.00 | 0.28 | 0.01 | 42 | 1008.4 |
| 20260903190047 | 68 | 239 | 23.0 | 32.0 | 0.00 | 0.28 | 0.01 | 44 | 1008.7 |
| 20260903184552 | 68 | 242 | 16.0 | 26.0 | 0.00 | 0.28 | 0.01 | 45 | 1008.4 |
| 20260903183052 | 67 | 250 | 18.0 | 29.0 | 0.00 | 0.28 | 0.01 | 45 | 1008.3 |
| 20260903181546 | 67 | 237 | 17.0 | 27.0 | 0.00 | 0.28 | 0.01 | 46 | 1008.5 |
| 20260903180044 | 67 | 248 | 15.0 | 30.0 | 0.00 | 0.28 | 0.01 | 48 | 1008.3 |
| 20260903174543 | 66 | 245 | 16.0 | 21.0 | 0.00 | 0.28 | 0.01 | 47 | 1008.4 |
| 20260903173049 | 66 | 241 | 17.0 | 26.0 | 0.00 | 0.28 | 0.01 | 48 | 1008.7 |
| 20260903171556 | 66 | 254 | 16.0 | 27.0 | 0.00 | 0.28 | 0.01 | 48 | 1008.6 |
| 20260903170052 | 66 | 257 | 19.0 | 28.0 | 0.00 | 0.28 | 0.01 | 48 | 1008.4 |
| 20260903164558 | 65 | 237 | 20.0 | 31.0 | 0.00 | 0.28 | 0.01 | 50 | 1008.3 |
| 20260903163046 | 64 | 243 | 17.0 | 28.0 | 0.00 | 0.28 | 0.01 | 52 | 1008.0 |
| 20260903161546 | 63 | 250 | 20.0 | 28.0 | 0.00 | 0.28 | 0.01 | 53 | 1007.9 |
| 20260903160042 | 61 | 229 | 6.0 | 13.0 | 0.00 | 0.28 | 0.01 | 60 | 1008.0 |
| 20260903154551 | 60 | 209 | 8.0 | 12.0 | 0.00 | 0.28 | 0.01 | 61 | 1008.1 |
| 20260903153053 | 59 | 221 | 8.0 | 23.0 | 0.00 | 0.28 | 0.01 | 61 | 1008.0 |
| 20260903151543 | 55 | 224 | 8.0 | 16.0 | 0.00 | 0.28 | 0.01 | 64 | 1007.8 |
| 20260903150053 | 53 | 203 | 2.0 | 6.0 | 0.00 | 0.28 | 0.01 | 69 | 1007.9 |
| 20260903144600 | 52 | 210 | 7.0 | 10.0 | 0.00 | 0.28 | 0.01 | 68 | 1007.7 |
| 20260903143055 | 52 | 204 | 8.0 | 14.0 | 0.00 | 0.28 | 0.01 | 69 | 1007.6 |
| 20260903141550 | 50 | 194 | 8.0 | 10.0 | 0.00 | 0.28 | 0.01 | 73 | 1007.3 |
| 20260903140055 | 50 | 200 | 8.0 | 13.0 | 0.00 | 0.28 | 0.01 | 74 | 1007.3 |
| 20260903134601 | 50 | 199 | 8.0 | 11.0 | 0.00 | 0.28 | 0.01 | 73 | 1007.2 |
| 20260903133105 | 50 | 209 | 8.0 | 13.0 | 0.01 | 0.28 | 0.01 | 72 | 1007.1 |
| 20260903131548 | 49 | 204 | 7.0 | 11.0 | 0.01 | 0.28 | 0.01 | 73 | 1007.1 |
| 20260903130124 | 49 | 211 | 5.0 | 9.0 | 0.01 | 0.28 | 0.01 | 73 | 1006.9 |
| 20260903124555 | 49 | 214 | 6.0 | 9.0 | 0.01 | 0.28 | 0.01 | 73 | 1006.6 |
| 20260903123048 | 49 | 200 | 4.0 | 8.0 | 0.00 | 0.27 | 0.00 | 73 | 1006.4 |
| 20260903121542 | 48 | 205 | 4.0 | 8.0 | 0.00 | 0.27 | 0.00 | 74 | 1006.6 |
| 20260903120051 | 48 | 189 | 3.0 | 6.0 | 0.00 | 0.27 | 0.00 | 75 | 1006.7 |
| 20260903114552 | 48 | 188 | 4.0 | 7.0 | 0.00 | 0.27 | 0.00 | 75 | 1006.8 |
| 20260903113045 | 48 | 159 | 4.0 | 9.0 | 0.00 | 0.27 | 0.00 | 76 | 1006.7 |
| 20260903111554 | 48 | 160 | 6.0 | 9.0 | 0.00 | 0.27 | 0.00 | 76 | 1006.9 |
| 20260903110053 | 48 | 144 | 5.0 | 9.0 | 0.00 | 0.27 | 0.00 | 75 | 1006.9 |
| 20260903104545 | 49 | 194 | 3.0 | 7.0 | 0.00 | 0.27 | 0.00 | 74 | 1006.9 |
| 20260903103053 | 49 | 173 | 3.0 | 8.0 | 0.00 | 0.27 | 0.00 | 75 | 1006.7 |
| 20260903101553 | 50 | 155 | 8.0 | 12.0 | 0.00 | 0.27 | 0.00 | 74 | 1006.8 |
| 20260903100046 | 51 | 175 | 4.0 | 7.0 | 0.00 | 0.27 | 0.00 | 73 | 1006.7 |
| 20260903094553 | 51 | 183 | 3.0 | 6.0 | 0.00 | 0.27 | 0.00 | 74 | 1006.6 |
| 20260903093043 | 51 | 196 | 4.0 | 9.0 | 0.00 | 0.27 | 0.00 | 74 | 1006.5 |
| 20260903091555 | 52 | 190 | 5.0 | 9.0 | 0.00 | 0.27 | 0.00 | 74 | 1006.4 |
| 20260903090058 | 53 | 195 | 2.0 | 6.0 | 0.00 | 0.27 | 0.00 | 74 | 1006.2 |
| 20260903084545 | 53 | 191 | 4.0 | 9.0 | 0.00 | 0.27 | 0.00 | 75 | 1006.1 |
| 20260903083055 | 53 | 197 | 7.0 | 10.0 | 0.00 | 0.27 | 0.00 | 75 | 1006.0 |
| 20260903081549 | 52 | 186 | 3.0 | 7.0 | 0.00 | 0.27 | 0.00 | 76 | 1006.0 |
| 20260903080047 | 52 | 185 | 3.0 | 7.0 | 0.00 | 0.27 | 0.00 | 78 | 1006.2 |
| 20260903074602 | 52 | 195 | 5.0 | 8.0 | 0.00 | 0.27 | 0.00 | 78 | 1006.0 |
| 20260903073102 | 52 | 202 | 5.0 | 7.0 | 0.00 | 0.27 | 0.00 | 78 | 1005.9 |
| 20260903071613 | 52 | 208 | 7.0 | 12.0 | 0.00 | 0.27 | 0.00 | 78 | 1005.8 |
| 20260903070046 | 52 | 200 | 6.0 | 8.0 | 0.00 | 0.27 | 0.00 | 79 | 1005.7 |
| 20260903064549 | 53 | 199 | 6.0 | 9.0 | 0.00 | 0.27 | 0.00 | 79 | 1005.8 |
| 20260903063056 | 52 | 209 | 7.0 | 14.0 | 0.00 | 0.27 | 0.00 | 79 | 1005.7 |
| 20260903061547 | 52 | 213 | 9.0 | 14.0 | 0.00 | 0.27 | 0.00 | 79 | 1005.9 |
| 20260903060111 | 52 | 208 | 8.0 | 14.0 | 0.01 | 0.27 | 0.00 | 80 | 1006.0 |
| 20260903054542 | 52 | 215 | 9.0 | 15.0 | 0.02 | 0.27 | 0.27 | 80 | 1006.2 |
| 20260903053051 | 52 | 215 | 11.0 | 18.0 | 0.03 | 0.27 | 0.27 | 79 | 1006.1 |
| 20260903051600 | 52 | 211 | 13.0 | 19.0 | 0.06 | 0.27 | 0.27 | 78 | 1006.3 |
| 20260903050053 | 53 | 209 | 13.0 | 22.0 | 0.06 | 0.26 | 0.26 | 77 | 1006.5 |
| 20260903044547 | 53 | 219 | 16.0 | 23.0 | 0.05 | 0.25 | 0.25 | 74 | 1006.5 |
| 20260903043047 | 53 | 205 | 9.0 | 15.0 | 0.04 | 0.24 | 0.24 | 74 | 1006.3 |
| 20260903041543 | 55 | 211 | 9.0 | 18.0 | 0.01 | 0.21 | 0.21 | 70 | 1006.3 |
| 20260903040101 | 54 | 223 | 9.0 | 14.0 | 0.00 | 0.20 | 0.20 | 68 | 1006.4 |
| 20260903034546 | 54 | 215 | 9.0 | 15.0 | 0.00 | 0.20 | 0.20 | 68 | 1006.4 |
| 20260903033042 | 53 | 227 | 8.0 | 12.0 | 0.00 | 0.20 | 0.20 | 69 | 1006.4 |
| 20260903031543 | 53 | 213 | 10.0 | 15.0 | 0.00 | 0.20 | 0.20 | 69 | 1006.5 |